This is the latest recevied weather packets stored in our database for station/object WK7G. If no packets are shown the sender has not sent any weather packets the latest 10 day(s).
| Time | Temp. | Humidity | Pressure | Rain* | Wind** | Luminosity | Snow |
|---|---|---|---|---|---|---|---|
| 1777572753 | 8.89° C | 52% | 1014.1 hPa | 0 mm | - | 913 W/m² | - |
| 1777572447 | 8.89° C | 50% | 1014.2 hPa | 0 mm | - | 912 W/m² | - |
| 1777572144 | 8.33° C | 49% | 1014.5 hPa | 0 mm | - | 901 W/m² | - |
| 1777571839 | 8.89° C | 51% | 1014.3 hPa | 0 mm | - | 900 W/m² | - |
| 1777571535 | 8.33° C | 54% | 1014.2 hPa | 0 mm | - | 861 W/m² | - |
| 1777571232 | 7.78° C | 53% | 1014.3 hPa | 0 mm | - | 829 W/m² | - |
| 1777570928 | 8.33° C | 54% | 1014.7 hPa | 0 mm | - | 796 W/m² | - |
| 1777570623 | 8.33° C | 53% | 1014.2 hPa | 0 mm | - | 839 W/m² | - |
| 1777570321 | 7.22° C | 56% | 1014.6 hPa | 0 mm | - | 869 W/m² | - |
| 1777570016 | 7.22° C | 56% | 1014.3 hPa | 0 mm | - | 865 W/m² | - |
| 1777569712 | 7.78° C | 60% | 1014.7 hPa | 0 mm | - | 903 W/m² | - |
| 1777569407 | 6.67° C | 55% | 1014.5 hPa | 0 mm | - | 862 W/m² | - |
| 1777569104 | 7.22° C | 59% | 1014.2 hPa | 0 mm | - | 858 W/m² | - |
| 1777568801 | 7.22° C | 60% | 1014.6 hPa | 0 mm | - | 864 W/m² | - |
| 1777568499 | 6.67° C | 64% | 1014.6 hPa | 0 mm | - | 847 W/m² | - |
| 1777568195 | 6.67° C | 62% | 1014.7 hPa | 0 mm | - | 835 W/m² | - |
| 1777567892 | 6.67° C | 67% | 1014.5 hPa | 0 mm | - | 839 W/m² | - |
| 1777567588 | 6.67° C | 67% | 1014.6 hPa | 0 mm | - | 845 W/m² | - |
| 1777567286 | 5.56° C | 70% | 1014.8 hPa | 0 mm | - | 797 W/m² | - |
| 1777566984 | 6.11° C | 69% | 1014.8 hPa | 0 mm | - | 803 W/m² | - |
| 1777566682 | 5.56° C | 69% | 1014.8 hPa | 0 mm | - | 779 W/m² | - |
| 1777566379 | 5.56° C | 72% | 1014.8 hPa | 0 mm | - | 771 W/m² | - |
| 1777566076 | 5.56° C | 71% | 1014.9 hPa | 0 mm | - | 749 W/m² | - |
| 1777565771 | 5° C | 74% | 1014.9 hPa | 0 mm | - | 730 W/m² | - |
| 1777565468 | 5° C | 74% | 1015.1 hPa | 0 mm | - | 688 W/m² | - |
* Rain latest hour (hover to see other rain measurements)
** Current wind speed in m/s (hover to see current wind gust speed)